星链-36522(STARLINK-36522)

导读 | 豆包AI

STARLINK-36522是一颗由美国发射的Starlink系列卫星,于2026年1月14日升空。它隶属于SpaceX公司主导的星链星座计划,该计划旨在构建全球卫星互联网系统,为全球用户提供低延迟、高速率的宽带互联网接入服务。作为星链组网的组成部分,它将进一步拓展星链星座的覆盖范围与服务能力。

基本信息
目录编号:
67461
目录名称:
STARLINK-36522
国际标识:
2026-008S
轨道中心:
EARTH
卫星名称:
星链-36522
卫星全名:
星链-36522(STARLINK-36522)
卫星状态:
在轨 (已飞行131 天)
发射日期:
2026-01-14 UTC
国别 :
美国 (US)
星等 :
--
轨道信息
数据来源 国际轨道数据
星历时间: 2026-05-25T06:33:34+0800
10小时前
查看轨道信息
半长轴: 6861.134km
偏心率: 0.0002029
轨道倾角: 43.002°
近地点辐角 284.243°
升交点赤经 134.611°
平近点角 75.819°
近地点: 481.604km
远地点: 484.39km
周期: 94.266分钟
每日圈数: 15.275976
详细信息
固有亮度:
5
最大亮度:
2.5
卫星平台:
Starlink V1.0
覆盖范围:
全球
运营商:
太空探索技术公司
运营商所在国:
美国
制造商(研发单位):
太空探索技术公司
制造商所在国:
美国
使用方式:
暂无
卫星简介
Starlink 计划是 SpaceX 推出的全球卫星互联网项目,通过发射低轨道卫星,为全球尤其是偏远地区提供高速、低延迟的互联网服务。自 2019 年起,Starlink 已部署数千颗卫星,旨在缩小全球数字鸿沟,推动互联网普及。该项目还为军事、航空等行业提供通信支持,带来广泛经济效益。
2D轨道图
3D轨道图
轨道高度分析图
轨道倾角分析图
轨道综合分析图
查看轨道综合分析图